Location: Poughquag
(41.6090°N, 73.6820°W)
Time: 07:42:44
(UTC-05:00)

STRAND 1 - Pass Details

Date: 30 November 2023
Orbit: 766 x 778 km, 98.4° (Epoch: 24 February)

Event Time Altitude Azimuth Distance (km) Brightness Sun altitude
Rises 05:24:28 0° 160° (SSE) 3,237 ? -17.6°
Reaches altitude 10° 05:26:46 10° 158° (SSE) 2,312 ? -17.1°
Maximum altitude 05:31:50 74° 75° (ENE) 806 ? -16.2°
Drops below altitude 10° 05:36:57 10° 351° (N) 2,320 ? -15.3°
Sets 05:39:16 0° 349° (N) 3,249 ? -14.9°
